Regional Weather Roundup
Issued by NWS

Home | Current Version | Previous Version | Text Only | Print | Product List | Glossary Off
Versions: 1 2 3 4 5 6 7 8 9 10 11 12 13 14 15 16 17 18 19 20 21 22 23 24 25 26 27 28 29 30 31 32 33 34 35 36 37 38 39 40 41 42 43 44 45 46 47 48 49 50

000
ASUS43 KMKX 191921
RWRWI

WISCONSIN REGIONAL WEATHER ROUNDUP
NATIONAL WEATHER SERVICE MILWAUKEE/SULLIVAN WI
200 PM CDT THU OCT 19 2017

NOTE: "FAIR" INDICATES FEW OR NO CLOUDS BELOW 12,000 FEET WITH NO
SIGNIFICANT WEATHER AND/OR OBSTRUCTIONS TO VISIBILITY.

WIZ001-002-006>008-014>016-023>028-192000-
NORTHWEST WISCONSIN

CITY           SKY/WX    TMP DP  RH WIND       PRES   REMARKS
SUPERIOR ARPT  FAIR      68  32  26 SW10G16   29.97F
ASHLAND        FAIR      68  28  22 SW10      30.00F
HAYWARD        FAIR      66  30  26 S12       30.02F
SIREN          FAIR      69  30  23 S12       30.01F
CUMBERLAND     FAIR      64  32  29 S8        30.03F
RICE LAKE      FAIR      67  29  24 S9        30.05F
CHETEK         FAIR      67  35  29 S7        30.05F
LADYSMITH      FAIR      65  32  28 SW9       30.07F
EAU CLAIRE     FAIR      68  29  23 S7        30.05F
MENOMONIE      FAIR      69  34  27 S10       30.05F
NEW RICHMOND   FAIR      69  29  22 S13       30.03F
OSCEOLA        FAIR      70  31  23 S13       30.04F
$$

WIZ003>005-009-010-017-018-192000-
NORTH CENTRAL WISCONSIN

CITY           SKY/WX    TMP DP  RH WIND       PRES   REMARKS
MANITOWISH WTR FAIR      63  29  27 W12G20    30.05S
ARBOR VITAE    FAIR      64  29  26 W13       30.06S
WOODRUFF       FAIR      64  29  26 W13       30.06S
RHINELANDER    FAIR      65  28  24 SW9       30.07F
EAGLE RIVER    FAIR      63  23  22 W14       30.06S
LAND O LAKES   FAIR      63  24  23 W9G16     30.07S
PHILLIPS       FAIR      64  31  29 SW9G17    30.05F
TOMAHAWK       FAIR      64  26  23 W8        30.07F
MEDFORD        FAIR      65  29  26 SW6       30.08F
MERRILL        FAIR      65  30  26 SW6       30.09F
$$

WIZ029-030-035-036-043>047-192000-
CENTRAL WISCONSIN

CITY           SKY/WX    TMP DP  RH WIND       PRES   REMARKS
WAUSAU         FAIR      66  30  26 W8        30.07F
MOSINEE        MOSUNNY   66  28  24 W7        30.11F
MARSHFIELD     FAIR      67  28  23 SW5       30.08F
STEVENS POINT  FAIR      64  29  26 W3        30.10F
WAUPACA        FAIR      69  29  22 SW9       30.10F
WAUTOMA        FAIR      70  31  23 SW7       30.11F
WISC RAPIDS    FAIR      67  35  30 S9        30.11F
CAMP DOUGLAS   PTSUNNY   70  36  28 W6        30.10F
$$

WIZ011>013-019>022-031-037>040-048>050-192000-
NORTHEAST WISCONSIN

CITY           SKY/WX    TMP DP  RH WIND       PRES   REMARKS
ANTIGO         FAIR      62  32  33 W12G22    30.09F
SHAWANO        FAIR      68  29  22 W10G17    30.09S
OCONTO         FAIR      65  30  26 W16       30.07F
STURGEON BAY   FAIR      63  31  30 W15G21    30.08F
GREEN BAY      FAIR      66  31  27 SW12      30.10F
MANITOWOC      FAIR      65  31  28 W13G20    30.11F
APPLETON       SUNNY     64  27  24 SW10      30.11S
CLINTONVILLE   FAIR      68  27  21 W9        30.09F
OSHKOSH        FAIR      67  32  27 W7        30.11F
$$

WIZ032>034-041-042-053>061-192000-
SOUTHWEST WISCONSIN

CITY           SKY/WX    TMP DP  RH WIND       PRES   REMARKS
LA CROSSE      FAIR      69  38  32 S10       30.09F
SPARTA         FAIR      69  34  27 S7        30.10F
VIROQUA        FAIR      68  35  30 SE7       30.11F
BOSCOBEL       FAIR      72  29  20 VRB5      30.12F
PRAIRIE DU CHI FAIR      68  34  29 SW5       30.12F
PLATTEVILLE    FAIR      69  32  25 SE5       30.15S
$$

WIZ056-057-062-063-064-067-068-192000-
SOUTH CENTRAL WISCONSIN

CITY           SKY/WX    TMP DP  RH WIND       PRES   REMARKS
REEDSBURG      FAIR      69  33  26 S5        30.12F
BARABOO/DELLS  FAIR      68  28  22 W3        30.12F
LONE ROCK      FAIR      68  30  24 SE3       30.12F
MINERAL POINT  FAIR      72  30  21 SE6       30.14F
MADISON        PTSUNNY   66  33  29 SE7       30.14F
MIDDLETON      FAIR      69  28  22 E3        30.14F
WATERTOWN      FAIR      67  30  25 CALM      30.14F
MONROE         FAIR      66  28  24 S5        30.15F
JANESVILLE     PTSUNNY   70  25  18 S8        30.15F
$$

WIZ051-052-058>065-066-070>072-192000-
SOUTHEAST WISCONSIN

CITY           SKY/WX    TMP DP  RH WIND       PRES   REMARKS
MILWAUKEE      PTSUNNY   68  29  23 SW9       30.16F
WAUKESHA       SUNNY     64  27  24 W7        30.16F
MILWAUKEE/TIMM SUNNY     66  19  16 CALM      30.16F
RACINE         FAIR      65  25  22 SE8       30.18F
BURLINGTON     FAIR      68  29  23 N3        30.16F
KENOSHA        FAIR      68  26  20 CALM      30.16F
FOND DU LAC    FAIR      68  27  21 W10       30.12F
SHEBOYGAN      FAIR      67  32  27 W10       30.12F
WEST BEND      FAIR      66  27  22 W6        30.14F
JUNEAU         FAIR      67  29  25 NW3       30.14F
$$

LSZ147-162-192000-
LAKE SUPERIOR

STATION/POSITION TIME  TEMP    WIND        PRES    WAVE
                       AIR SEA DIR/SP/G            HT/PER
                 (UTC) (F)     (DEG/KT/KT) (MB)    (FT/S)
W MID LAKE BUOY  1850   54 52              1015.1F   5/ 6
DEVILS ISLAND    1900   56     240/ 11/ 13 1015.6F
SAXON HARBOR     1840   66     250/ 10/ 15 1015.6F
$$

LMZ867-665-643>646-192000-
LAKE MICHIGAN

STATION/POSITION TIME  TEMP    WIND        PRES    WAVE
                       AIR SEA DIR/SP/G            HT/PER
                 (UTC) (F)     (DEG/KT/KT) (MB)    (FT/S)
S GREEN BAY BUOY 1900   61 58  250/ 12/ 14 1018.2
N MID LAKE BUOY  1850   58 58  230/ 17/ 19 1017.9S   4/ 6
NORTHPORT PIER   1840   63     250/  6/ 13 1017.3F
KEWAUNEE LAKESHO 1900   65     270/ 11/ 14 1018.0
SHEBOYGAN LAKESH 1900   65     270/ 11/ 13 1019.5F
PORT WASHINGTON  1840   67     190/  6/ 10 1021.3F
ATWATER BUOY     1809   56 54  150/  8/ 10 1021.1F
MILWAUKEE LAKESH 1900   56     130/ 11/ 12   N/A
S MID LAKE BUOY  1850   58 61  300/  6/  8 1022.1F   2/ 4
KENOSHA   LAKESH 1900   60     160/  8/  9 1021.0
$$

TC  - TEMPERATURE IN CELSIUS
VSB - VISIBILITY IN STATUTE MILES
WCI - WIND CHILL INDEX
HX  - HEAT INDEX





USA.gov is the U.S. government's official web portal to all federal, state and local government web resources and services.